Time,TemperatureF,DewpointF,PressureIn,WindDirection,WindDirectionDegrees,WindSpeedMPH,WindSpeedGustMPH,Humidity,HourlyPrecipIn,Conditions,Clouds,dailyrainin,SoftwareType,DateUTC
2013-03-04 00:00:00,18.3,15.0,30.06,NW,313,0.0,-999.0,90,-99.99,,,0.00,ADS-WS1 bash script,2013-03-04 05:00:00,
2013-03-04 00:05:00,18.1,15.0,30.06,NW,309,0.0,-999.0,89,-99.99,,,0.00,ADS-WS1 bash script,2013-03-04 05:05:00,
2013-03-04 00:10:00,17.9,15.0,30.05,NW,313,0.0,-999.0,90,-99.99,,,0.00,ADS-WS1 bash script,2013-03-04 05:10:00,
2013-03-04 00:15:00,17.9,15.0,30.06,NW,313,0.0,-999.0,90,-99.99,,,0.00,ADS-WS1 bash script,2013-03-04 05:15:00,
2013-03-04 00:20:00,17.9,15.0,30.06,NW,313,0.0,-999.0,91,-99.99,,,0.00,ADS-WS1 bash script,2013-03-04 05:20:00,
2013-03-04 00:25:00,17.8,15.0,30.06,West,268,0.0,-999.0,89,-99.99,,,0.00,ADS-WS1 bash script,2013-03-04 05:25:00,
2013-03-04 00:30:00,17.8,15.0,30.06,NW,313,0.0,-999.0,90,-99.99,,,0.00,ADS-WS1 bash script,2013-03-04 05:30:00,
2013-03-04 00:35:00,17.8,15.0,30.06,NW,313,0.0,-999.0,91,-99.99,,,0.00,ADS-WS1 bash script,2013-03-04 05:35:00,
2013-03-04 00:40:00,17.9,15.0,30.06,NW,313,1.0,-999.0,89,-99.99,,,0.00,ADS-WS1 bash script,2013-03-04 05:40:00,
2013-03-04 00:45:00,17.9,15.0,30.06,NW,313,2.0,-999.0,89,-99.99,,,0.00,ADS-WS1 bash script,2013-03-04 05:45:00,
2013-03-04 00:50:00,17.9,15.0,30.06,NW,313,1.0,-999.0,89,-99.99,,,0.00,ADS-WS1 bash script,2013-03-04 05:50:00,
2013-03-04 01:00:00,17.8,15.0,30.06,NW,313,1.0,-999.0,89,-99.99,,,0.00,ADS-WS1 bash script,2013-03-04 06:00:00,
2013-03-04 01:05:00,17.8,15.0,30.07,NW,313,1.0,-999.0,89,-99.99,,,0.00,ADS-WS1 bash script,2013-03-04 06:05:00,
2013-03-04 01:10:00,17.8,15.0,30.07,NW,313,2.0,-999.0,89,-99.99,,,0.00,ADS-WS1 bash script,2013-03-04 06:10:00,
2013-03-04 01:15:00,17.9,14.0,30.07,NW,313,1.0,-999.0,88,-99.99,,,0.00,ADS-WS1 bash script,2013-03-04 06:15:00,
2013-03-04 01:20:00,17.9,15.0,30.07,NW,313,2.0,-999.0,89,-99.99,,,0.00,ADS-WS1 bash script,2013-03-04 06:20:00,
2013-03-04 01:25:00,18.1,14.0,30.08,NW,313,2.0,-999.0,88,-99.99,,,0.00,ADS-WS1 bash script,2013-03-04 06:25:00,
2013-03-04 01:35:00,18.1,14.0,30.08,NW,324,3.0,-999.0,87,-99.99,,,0.00,ADS-WS1 bash script,2013-03-04 06:35:00,
2013-03-04 01:40:00,18.3,13.0,30.09,NW,313,3.0,-999.0,86,-99.99,,,0.00,ADS-WS1 bash script,2013-03-04 06:40:00,
2013-03-04 01:45:00,18.3,14.0,30.08,WNW,299,2.0,-999.0,87,-99.99,,,0.00,ADS-WS1 bash script,2013-03-04 06:45:00,
2013-03-04 01:50:00,18.5,13.0,30.09,NNW,335,2.0,-999.0,85,-99.99,,,0.00,ADS-WS1 bash script,2013-03-04 06:50:00,
2013-03-04 01:55:00,18.5,13.0,30.09,NW,313,2.0,-999.0,86,-99.99,,,0.00,ADS-WS1 bash script,2013-03-04 06:55:00,
2013-03-04 02:00:00,18.5,13.0,30.09,NW,313,1.0,-999.0,85,-99.99,,,0.00,ADS-WS1 bash script,2013-03-04 07:00:00,
2013-03-04 02:05:00,18.5,13.0,30.09,NW,313,1.0,-999.0,84,-99.99,,,0.00,ADS-WS1 bash script,2013-03-04 07:05:00,
2013-03-04 02:10:00,18.7,14.0,30.09,NW,323,2.0,-999.0,84,-99.99,,,0.00,ADS-WS1 bash script,2013-03-04 07:10:00,
2013-03-04 02:20:00,18.7,13.0,30.09,NW,324,2.0,-999.0,83,-99.99,,,0.00,ADS-WS1 bash script,2013-03-04 07:20:00,
2013-03-04 02:25:00,18.7,14.0,30.08,NW,313,1.0,-999.0,84,-99.99,,,0.00,ADS-WS1 bash script,2013-03-04 07:25:00,
2013-03-04 02:30:00,18.7,14.0,30.08,North,0,2.0,-999.0,84,-99.99,,,0.00,ADS-WS1 bash script,2013-03-04 07:30:00,
2013-03-04 02:35:00,18.5,12.0,30.08,North,0,1.0,-999.0,83,-99.99,,,0.00,ADS-WS1 bash script,2013-03-04 07:35:00,
2013-03-04 02:40:00,18.3,13.0,30.08,NW,313,2.0,-999.0,84,-99.99,,,0.00,ADS-WS1 bash script,2013-03-04 07:40:00,
2013-03-04 02:50:00,17.9,13.0,30.08,North,0,1.0,-999.0,84,-99.99,,,0.00,ADS-WS1 bash script,2013-03-04 07:50:00,
2013-03-04 02:55:00,17.8,13.0,30.08,NW,326,2.0,-999.0,84,-99.99,,,0.00,ADS-WS1 bash script,2013-03-04 07:55:00,
2013-03-04 03:00:00,17.6,13.0,30.07,NW,304,2.0,-999.0,84,-99.99,,,0.00,ADS-WS1 bash script,2013-03-04 08:00:00,
2013-03-04 03:05:00,17.4,12.0,30.07,WNW,296,0.0,-999.0,84,-99.99,,,0.00,ADS-WS1 bash script,2013-03-04 08:05:00,
2013-03-04 03:15:00,17.4,12.0,30.07,NNW,348,1.0,-999.0,85,-99.99,,,0.00,ADS-WS1 bash script,2013-03-04 08:15:00,
2013-03-04 03:20:00,17.0,12.0,30.07,NW,313,0.0,-999.0,85,-99.99,,,0.00,ADS-WS1 bash script,2013-03-04 08:20:00,
2013-03-04 03:25:00,16.9,12.0,30.07,NW,323,0.0,-999.0,84,-99.99,,,0.00,ADS-WS1 bash script,2013-03-04 08:25:00,
2013-03-04 03:30:00,16.9,12.0,30.08,NW,313,1.0,-999.0,85,-99.99,,,0.00,ADS-WS1 bash script,2013-03-04 08:30:00,
2013-03-04 03:35:00,16.9,12.0,30.07,NW,320,0.0,-999.0,86,-99.99,,,0.00,ADS-WS1 bash script,2013-03-04 08:35:00,
2013-03-04 03:45:00,16.5,11.0,30.07,NW,313,0.0,-999.0,85,-99.99,,,0.00,ADS-WS1 bash script,2013-03-04 08:45:00,
2013-03-04 03:50:00,16.5,11.0,30.08,NNW,328,1.0,-999.0,86,-99.99,,,0.00,ADS-WS1 bash script,2013-03-04 08:50:00,
2013-03-04 03:55:00,16.5,11.0,30.08,NNW,338,1.0,-999.0,86,-99.99,,,0.00,ADS-WS1 bash script,2013-03-04 08:55:00,
2013-03-04 04:00:00,16.5,12.0,30.08,NNW,341,0.0,-999.0,87,-99.99,,,0.00,ADS-WS1 bash script,2013-03-04 09:00:00,
2013-03-04 04:05:00,16.3,11.0,30.08,NW,313,1.0,-999.0,85,-99.99,,,0.00,ADS-WS1 bash script,2013-03-04 09:05:00,
2013-03-04 04:10:00,16.5,11.0,30.09,NW,313,0.0,-999.0,86,-99.99,,,0.00,ADS-WS1 bash script,2013-03-04 09:10:00,
2013-03-04 04:15:00,16.3,11.0,30.09,NW,313,1.0,-999.0,86,-99.99,,,0.00,ADS-WS1 bash script,2013-03-04 09:15:00,
2013-03-04 04:20:00,16.3,11.0,30.08,NW,313,1.0,-999.0,86,-99.99,,,0.00,ADS-WS1 bash script,2013-03-04 09:20:00,
2013-03-04 04:25:00,16.1,12.0,30.09,NW,313,0.0,-999.0,87,-99.99,,,0.00,ADS-WS1 bash script,2013-03-04 09:25:00,
2013-03-04 04:30:00,16.1,11.0,30.09,WNW,290,0.0,-999.0,86,-99.99,,,0.00,ADS-WS1 bash script,2013-03-04 09:30:00,
2013-03-04 04:35:00,16.0,11.0,30.09,NW,313,0.0,-999.0,86,-99.99,,,0.00,ADS-WS1 bash script,2013-03-04 09:35:00,
2013-03-04 04:40:00,15.8,12.0,30.09,NNW,335,1.0,-999.0,87,-99.99,,,0.00,ADS-WS1 bash script,2013-03-04 09:40:00,
2013-03-04 04:45:00,15.8,12.0,30.09,North,0,0.0,-999.0,87,-99.99,,,0.00,ADS-WS1 bash script,2013-03-04 09:45:00,
2013-03-04 04:50:00,15.8,12.0,30.09,North,0,0.0,-999.0,87,-99.99,,,0.00,ADS-WS1 bash script,2013-03-04 09:50:00,
2013-03-04 04:55:00,15.6,12.0,30.09,NW,313,1.0,-999.0,88,-99.99,,,0.00,ADS-WS1 bash script,2013-03-04 09:55:00,
2013-03-04 05:00:00,15.6,12.0,30.10,NW,313,0.0,-999.0,87,-99.99,,,0.00,ADS-WS1 bash script,2013-03-04 10:00:00,
2013-03-04 05:05:00,15.4,11.0,30.10,NNW,335,0.0,-999.0,87,-99.99,,,0.00,ADS-WS1 bash script,2013-03-04 10:05:00,
2013-03-04 05:15:00,15.4,11.0,30.11,NW,313,0.0,-999.0,87,-99.99,,,0.00,ADS-WS1 bash script,2013-03-04 10:15:00,
2013-03-04 05:20:00,15.2,11.0,30.11,NW,313,0.0,-999.0,88,-99.99,,,0.00,ADS-WS1 bash script,2013-03-04 10:20:00,
2013-03-04 05:25:00,15.2,11.0,30.11,WNW,302,1.0,-999.0,87,-99.99,,,0.00,ADS-WS1 bash script,2013-03-04 10:25:00,
2013-03-04 05:30:00,15.2,11.0,30.12,NW,320,2.0,-999.0,88,-99.99,,,0.00,ADS-WS1 bash script,2013-03-04 10:30:00,
2013-03-04 05:35:00,15.2,11.0,30.12,NW,313,0.0,-999.0,88,-99.99,,,0.00,ADS-WS1 bash script,2013-03-04 10:35:00,
2013-03-04 05:45:00,15.2,11.0,30.12,NW,313,1.0,-999.0,87,-99.99,,,0.00,ADS-WS1 bash script,2013-03-04 10:45:00,
2013-03-04 05:50:00,15.1,11.0,30.13,NW,313,1.0,-999.0,88,-99.99,,,0.00,ADS-WS1 bash script,2013-03-04 10:50:00,
2013-03-04 05:55:00,15.1,11.0,30.13,NW,313,1.0,-999.0,88,-99.99,,,0.00,ADS-WS1 bash script,2013-03-04 10:55:00,
2013-03-04 06:00:00,15.4,12.0,30.13,NW,313,1.0,-999.0,89,-99.99,,,0.00,ADS-WS1 bash script,2013-03-04 11:00:00,
2013-03-04 06:05:00,15.4,12.0,30.13,NW,313,0.0,-999.0,89,-99.99,,,0.00,ADS-WS1 bash script,2013-03-04 11:05:00,
2013-03-04 06:10:00,15.4,11.0,30.13,NW,323,2.0,-999.0,87,-99.99,,,0.00,ADS-WS1 bash script,2013-03-04 11:10:00,
2013-03-04 06:20:00,15.8,12.0,30.13,NNW,343,2.0,-999.0,88,-99.99,,,0.00,ADS-WS1 bash script,2013-03-04 11:20:00,
2013-03-04 06:25:00,15.8,12.0,30.13,NNW,343,2.0,-999.0,88,-99.99,,,0.00,ADS-WS1 bash script,2013-03-04 11:25:00,
2013-03-04 06:30:00,15.8,12.0,30.13,NW,313,0.0,-999.0,87,-99.99,,,0.00,ADS-WS1 bash script,2013-03-04 11:30:00,
2013-03-04 06:40:00,15.4,11.0,30.12,NNW,335,1.0,-999.0,87,-99.99,,,0.00,ADS-WS1 bash script,2013-03-04 11:40:00,
2013-03-04 06:45:00,15.2,10.0,30.12,NNW,343,1.0,-999.0,86,-99.99,,,0.00,ADS-WS1 bash script,2013-03-04 11:45:00,
2013-03-04 06:50:00,15.2,11.0,30.13,NW,313,1.0,-999.0,87,-99.99,,,0.00,ADS-WS1 bash script,2013-03-04 11:50:00,
2013-03-04 06:55:00,15.1,11.0,30.13,NNW,335,1.0,-999.0,87,-99.99,,,0.00,ADS-WS1 bash script,2013-03-04 11:55:00,
2013-03-04 07:00:00,14.9,11.0,30.13,NW,313,1.0,-999.0,87,-99.99,,,0.00,ADS-WS1 bash script,2013-03-04 12:00:00,
2013-03-04 07:05:00,14.9,11.0,30.12,NW,313,1.0,-999.0,88,-99.99,,,0.00,ADS-WS1 bash script,2013-03-04 12:05:00,
2013-03-04 07:15:00,14.9,11.0,30.13,NW,323,2.0,-999.0,88,-99.99,,,0.00,ADS-WS1 bash script,2013-03-04 12:15:00,
2013-03-04 07:20:00,15.2,11.0,30.14,NW,326,1.0,-999.0,87,-99.99,,,0.00,ADS-WS1 bash script,2013-03-04 12:20:00,
2013-03-04 07:25:00,15.2,12.0,30.13,NW,323,1.0,-999.0,89,-99.99,,,0.00,ADS-WS1 bash script,2013-03-04 12:25:00,
2013-03-04 07:35:00,15.6,12.0,30.14,NNW,330,0.0,-999.0,87,-99.99,,,0.00,ADS-WS1 bash script,2013-03-04 12:35:00,
2013-03-04 07:40:00,15.8,12.0,30.14,North,354,4.0,-999.0,87,-99.99,,,0.00,ADS-WS1 bash script,2013-03-04 12:40:00,
2013-03-04 07:45:00,16.3,12.0,30.14,NNW,343,2.0,-999.0,87,-99.99,,,0.00,ADS-WS1 bash script,2013-03-04 12:45:00,
2013-03-04 07:55:00,17.6,13.0,30.14,NNW,328,4.0,-999.0,85,-99.99,,,0.00,ADS-WS1 bash script,2013-03-04 12:55:00,
2013-03-04 08:00:00,18.1,13.0,30.14,North,354,4.0,-999.0,84,-99.99,,,0.00,ADS-WS1 bash script,2013-03-04 13:00:00,
2013-03-04 08:05:00,18.7,14.0,30.14,NW,323,2.0,-999.0,84,-99.99,,,0.00,ADS-WS1 bash script,2013-03-04 13:05:00,
2013-03-04 08:10:00,19.2,13.0,30.14,NW,313,1.0,-999.0,82,-99.99,,,0.00,ADS-WS1 bash script,2013-03-04 13:10:00,
2013-03-04 08:15:00,19.6,14.0,30.14,NNW,338,3.0,-999.0,82,-99.99,,,0.00,ADS-WS1 bash script,2013-03-04 13:15:00,
2013-03-04 08:20:00,20.1,13.0,30.14,NW,309,1.0,-999.0,80,-99.99,,,0.00,ADS-WS1 bash script,2013-03-04 13:20:00,
2013-03-04 08:25:00,20.5,13.0,30.14,North,351,3.0,-999.0,80,-99.99,,,0.00,ADS-WS1 bash script,2013-03-04 13:25:00,
2013-03-04 08:30:00,20.8,14.0,30.14,NNW,330,1.0,-999.0,80,-99.99,,,0.00,ADS-WS1 bash script,2013-03-04 13:30:00,
2013-03-04 08:40:00,21.3,13.0,30.13,North,0,4.0,-999.0,77,-99.99,,,0.00,ADS-WS1 bash script,2013-03-04 13:40:00,
2013-03-04 08:45:00,21.5,14.0,30.14,NNE,25,0.0,-999.0,77,-99.99,,,0.00,ADS-WS1 bash script,2013-03-04 13:45:00,
2013-03-04 08:50:00,21.9,15.0,30.13,North,355,2.0,-999.0,78,-99.99,,,0.00,ADS-WS1 bash script,2013-03-04 13:50:00,
2013-03-04 08:55:00,22.2,14.0,30.13,NE,43,3.0,-999.0,76,-99.99,,,0.00,ADS-WS1 bash script,2013-03-04 13:55:00,
2013-03-04 09:00:00,22.4,13.0,30.14,North,351,2.0,-999.0,74,-99.99,,,0.00,ADS-WS1 bash script,2013-03-04 14:00:00,
2013-03-04 09:05:00,22.8,14.0,30.14,North,9,2.0,-999.0,74,-99.99,,,0.00,ADS-WS1 bash script,2013-03-04 14:05:00,
2013-03-04 09:10:00,23.1,13.0,30.14,NNE,14,3.0,-999.0,72,-99.99,,,0.00,ADS-WS1 bash script,2013-03-04 14:10:00,
2013-03-04 09:15:00,23.9,15.0,30.14,NNW,348,3.0,-999.0,73,-99.99,,,0.00,ADS-WS1 bash script,2013-03-04 14:15:00,
2013-03-04 09:20:00,24.4,14.0,30.14,NNW,338,2.0,-999.0,72,-99.99,,,0.00,ADS-WS1 bash script,2013-03-04 14:20:00,
2013-03-04 09:25:00,24.8,15.0,30.14,NNW,330,2.0,-999.0,71,-99.99,,,0.00,ADS-WS1 bash script,2013-03-04 14:25:00,
2013-03-04 09:30:00,24.9,15.0,30.14,North,0,1.0,-999.0,71,-99.99,,,0.00,ADS-WS1 bash script,2013-03-04 14:30:00,
2013-03-04 09:35:00,25.1,15.0,30.14,NNW,341,3.0,-999.0,70,-99.99,,,0.00,ADS-WS1 bash script,2013-03-04 14:35:00,
2013-03-04 09:40:00,25.3,14.0,30.13,NNW,340,1.0,-999.0,69,-99.99,,,0.00,ADS-WS1 bash script,2013-03-04 14:40:00,
2013-03-04 09:45:00,26.2,15.0,30.14,North,350,4.0,-999.0,69,-99.99,,,0.00,ADS-WS1 bash script,2013-03-04 14:45:00,
2013-03-04 09:50:00,26.4,15.0,30.14,NW,313,2.0,-999.0,68,-99.99,,,0.00,ADS-WS1 bash script,2013-03-04 14:50:00,
2013-03-04 09:55:00,26.7,15.0,30.14,NNE,29,2.0,-999.0,66,-99.99,,,0.00,ADS-WS1 bash script,2013-03-04 14:55:00,
2013-03-04 10:00:00,26.9,16.0,30.14,North,354,1.0,-999.0,68,-99.99,,,0.00,ADS-WS1 bash script,2013-03-04 15:00:00,
2013-03-04 10:05:00,27.5,17.0,30.13,NW,313,2.0,-999.0,67,-99.99,,,0.00,ADS-WS1 bash script,2013-03-04 15:05:00,
2013-03-04 10:10:00,27.6,16.0,30.14,North,8,2.0,-999.0,64,-99.99,,,0.00,ADS-WS1 bash script,2013-03-04 15:10:00,
2013-03-04 10:15:00,28.2,16.0,30.13,NW,313,1.0,-999.0,64,-99.99,,,0.00,ADS-WS1 bash script,2013-03-04 15:15:00,
2013-03-04 10:20:00,28.9,16.0,30.13,North,352,0.0,-999.0,63,-99.99,,,0.00,ADS-WS1 bash script,2013-03-04 15:20:00,
2013-03-04 10:25:00,29.4,15.0,30.13,WNW,290,0.0,-999.0,60,-99.99,,,0.00,ADS-WS1 bash script,2013-03-04 15:25:00,
2013-03-04 10:30:00,29.4,15.0,30.13,North,351,5.0,-999.0,59,-99.99,,,0.00,ADS-WS1 bash script,2013-03-04 15:30:00,
2013-03-04 10:35:00,29.6,16.0,30.12,East,81,0.0,-999.0,60,-99.99,,,0.00,ADS-WS1 bash script,2013-03-04 15:35:00,
2013-03-04 10:40:00,30.3,15.0,30.13,WNW,295,2.0,-999.0,57,-99.99,,,0.00,ADS-WS1 bash script,2013-03-04 15:40:00,
2013-03-04 10:50:00,30.7,16.0,30.13,NW,309,6.0,-999.0,57,-99.99,,,0.00,ADS-WS1 bash script,2013-03-04 15:50:00,
2013-03-04 10:55:00,30.9,16.0,30.13,NW,324,4.0,-999.0,56,-99.99,,,0.00,ADS-WS1 bash script,2013-03-04 15:55:00,
2013-03-04 11:00:00,31.1,15.0,30.13,WSW,245,1.0,-999.0,55,-99.99,,,0.00,ADS-WS1 bash script,2013-03-04 16:00:00,
2013-03-04 11:05:00,31.6,17.0,30.13,West,268,3.0,-999.0,57,-99.99,,,0.00,ADS-WS1 bash script,2013-03-04 16:05:00,
2013-03-04 11:10:00,31.8,16.0,30.13,NW,313,3.0,-999.0,55,-99.99,,,0.00,ADS-WS1 bash script,2013-03-04 16:10:00,
2013-03-04 11:15:00,32.0,16.0,30.13,NNW,347,6.0,-999.0,55,-99.99,,,0.00,ADS-WS1 bash script,2013-03-04 16:15:00,
2013-03-04 11:25:00,32.7,17.0,30.13,West,268,2.0,-999.0,53,-99.99,,,0.00,ADS-WS1 bash script,2013-03-04 16:25:00,
2013-03-04 11:30:00,32.5,15.0,30.12,North,9,4.0,-999.0,51,-99.99,,,0.00,ADS-WS1 bash script,2013-03-04 16:30:00,
2013-03-04 11:35:00,32.7,17.0,30.12,NW,324,3.0,-999.0,53,-99.99,,,0.00,ADS-WS1 bash script,2013-03-04 16:35:00,
2013-03-04 11:40:00,32.7,16.0,30.12,NE,43,3.0,-999.0,51,-99.99,,,0.00,ADS-WS1 bash script,2013-03-04 16:40:00,
2013-03-04 11:50:00,32.1,14.0,30.12,NE,43,2.0,-999.0,50,-99.99,,,0.00,ADS-WS1 bash script,2013-03-04 16:50:00,
2013-03-04 11:55:00,32.5,15.0,30.12,SE,141,0.0,-999.0,52,-99.99,,,0.00,ADS-WS1 bash script,2013-03-04 16:55:00,
2013-03-04 12:00:00,32.7,16.0,30.12,NE,50,3.0,-999.0,51,-99.99,,,0.00,ADS-WS1 bash script,2013-03-04 17:00:00,
2013-03-04 12:05:00,32.3,15.0,30.12,NE,43,0.0,-999.0,51,-99.99,,,0.00,ADS-WS1 bash script,2013-03-04 17:05:00,
2013-03-04 12:10:00,32.7,16.0,30.12,NW,320,2.0,-999.0,51,-99.99,,,0.00,ADS-WS1 bash script,2013-03-04 17:10:00,
2013-03-04 12:20:00,32.7,16.0,30.12,North,0,2.0,-999.0,52,-99.99,,,0.00,ADS-WS1 bash script,2013-03-04 17:20:00,
2013-03-04 12:25:00,32.7,16.0,30.12,NE,49,3.0,-999.0,52,-99.99,,,0.00,ADS-WS1 bash script,2013-03-04 17:25:00,
2013-03-04 12:30:00,33.0,16.0,30.12,NE,43,1.0,-999.0,52,-99.99,,,0.00,ADS-WS1 bash script,2013-03-04 17:30:00,
2013-03-04 12:35:00,33.6,17.0,30.12,NE,38,5.0,-999.0,51,-99.99,,,0.00,ADS-WS1 bash script,2013-03-04 17:35:00,
2013-03-04 12:40:00,33.6,16.0,30.11,SE,125,2.0,-999.0,50,-99.99,,,0.00,ADS-WS1 bash script,2013-03-04 17:40:00,
2013-03-04 12:50:00,33.9,16.0,30.11,NE,43,2.0,-999.0,49,-99.99,,,0.00,ADS-WS1 bash script,2013-03-04 17:50:00,
2013-03-04 12:55:00,34.6,17.0,30.11,NNE,12,1.0,-999.0,49,-99.99,,,0.00,ADS-WS1 bash script,2013-03-04 17:55:00,
2013-03-04 13:00:00,34.8,16.0,30.10,NE,35,2.0,-999.0,47,-99.99,,,0.00,ADS-WS1 bash script,2013-03-04 18:00:00,
2013-03-04 13:05:00,34.8,16.0,30.10,NE,38,5.0,-999.0,47,-99.99,,,0.00,ADS-WS1 bash script,2013-03-04 18:05:00,
2013-03-04 13:10:00,35.2,17.0,30.10,NW,313,2.0,-999.0,49,-99.99,,,0.00,ADS-WS1 bash script,2013-03-04 18:10:00,
2013-03-04 13:15:00,35.7,17.0,30.10,West,265,1.0,-999.0,46,-99.99,,,0.00,ADS-WS1 bash script,2013-03-04 18:15:00,
2013-03-04 13:20:00,35.5,17.0,30.10,NNW,331,3.0,-999.0,46,-99.99,,,0.00,ADS-WS1 bash script,2013-03-04 18:20:00,
2013-03-04 13:30:00,36.3,17.0,30.09,WNW,295,3.0,-999.0,46,-99.99,,,0.00,ADS-WS1 bash script,2013-03-04 18:30:00,
2013-03-04 13:35:00,36.4,17.0,30.10,NW,313,3.0,-999.0,45,-99.99,,,0.00,ADS-WS1 bash script,2013-03-04 18:35:00,
2013-03-04 13:40:00,36.6,17.0,30.09,WNW,296,5.0,-999.0,44,-99.99,,,0.00,ADS-WS1 bash script,2013-03-04 18:40:00,
2013-03-04 13:45:00,36.6,16.0,30.09,NNE,21,2.0,-999.0,41,-99.99,,,0.00,ADS-WS1 bash script,2013-03-04 18:45:00,
2013-03-04 13:50:00,36.6,17.0,30.09,North,0,2.0,-999.0,44,-99.99,,,0.00,ADS-WS1 bash script,2013-03-04 18:50:00,
2013-03-04 13:55:00,36.6,17.0,30.09,SW,228,2.0,-999.0,44,-99.99,,,0.00,ADS-WS1 bash script,2013-03-04 18:55:00,
2013-03-04 14:05:00,37.3,17.0,30.09,WNW,283,2.0,-999.0,44,-99.99,,,0.00,ADS-WS1 bash script,2013-03-04 19:05:00,
2013-03-04 14:10:00,37.5,19.0,30.08,SW,224,3.0,-999.0,46,-99.99,,,0.00,ADS-WS1 bash script,2013-03-04 19:10:00,
2013-03-04 14:15:00,37.3,18.0,30.08,WSW,256,5.0,-999.0,45,-99.99,,,0.00,ADS-WS1 bash script,2013-03-04 19:15:00,
2013-03-04 14:20:00,37.0,17.0,30.08,SW,232,2.0,-999.0,44,-99.99,,,0.00,ADS-WS1 bash script,2013-03-04 19:20:00,
2013-03-04 14:30:00,37.0,18.0,30.08,SSW,200,2.0,-999.0,45,-99.99,,,0.00,ADS-WS1 bash script,2013-03-04 19:30:00,
2013-03-04 14:35:00,37.5,19.0,30.08,WSW,245,5.0,-999.0,46,-99.99,,,0.00,ADS-WS1 bash script,2013-03-04 19:35:00,
2013-03-04 14:40:00,37.7,19.0,30.08,NW,324,2.0,-999.0,46,-99.99,,,0.00,ADS-WS1 bash script,2013-03-04 19:40:00,
2013-03-04 14:45:00,37.9,18.0,30.08,WSW,239,1.0,-999.0,43,-99.99,,,0.00,ADS-WS1 bash script,2013-03-04 19:45:00,
2013-03-04 14:50:00,38.1,19.0,30.07,South,186,3.0,-999.0,45,-99.99,,,0.00,ADS-WS1 bash script,2013-03-04 19:50:00,
2013-03-04 14:55:00,38.1,19.0,30.07,South,179,3.0,-999.0,45,-99.99,,,0.00,ADS-WS1 bash script,2013-03-04 19:55:00,
2013-03-04 15:00:00,37.9,19.0,30.08,SSW,210,2.0,-999.0,45,-99.99,,,0.00,ADS-WS1 bash script,2013-03-04 20:00:00,
2013-03-04 15:05:00,38.2,18.0,30.07,NNW,335,0.0,-999.0,43,-99.99,,,0.00,ADS-WS1 bash script,2013-03-04 20:05:00,
2013-03-04 15:10:00,38.6,19.0,30.07,West,268,0.0,-999.0,44,-99.99,,,0.00,ADS-WS1 bash script,2013-03-04 20:10:00,
2013-03-04 15:15:00,39.1,19.0,30.07,WNW,296,1.0,-999.0,42,-99.99,,,0.00,ADS-WS1 bash script,2013-03-04 20:15:00,
2013-03-04 15:25:00,39.5,20.0,30.07,North,0,1.0,-999.0,42,-99.99,,,0.00,ADS-WS1 bash script,2013-03-04 20:25:00,
2013-03-04 15:30:00,39.7,20.0,30.07,NW,313,1.0,-999.0,42,-99.99,,,0.00,ADS-WS1 bash script,2013-03-04 20:30:00,
2013-03-04 15:35:00,39.3,18.0,30.07,NW,324,0.0,-999.0,41,-99.99,,,0.00,ADS-WS1 bash script,2013-03-04 20:35:00,
2013-03-04 15:40:00,39.5,20.0,30.07,ENE,59,1.0,-999.0,42,-99.99,,,0.00,ADS-WS1 bash script,2013-03-04 20:40:00,
2013-03-04 15:50:00,39.5,19.0,30.07,NNE,26,3.0,-999.0,41,-99.99,,,0.00,ADS-WS1 bash script,2013-03-04 20:50:00,
2013-03-04 15:55:00,39.3,18.0,30.07,North,354,2.0,-999.0,41,-99.99,,,1.00,ADS-WS1 bash script,2013-03-04 20:55:00,
2013-03-04 16:00:00,39.5,19.0,30.07,NW,306,1.0,-999.0,41,-99.99,,,1.00,ADS-WS1 bash script,2013-03-04 21:00:00,
2013-03-04 16:05:00,39.7,19.0,30.07,SE,145,1.0,-999.0,41,-99.99,,,0.00,ADS-WS1 bash script,2013-03-04 21:05:00,
2013-03-04 16:10:00,39.9,19.0,30.08,West,275,0.0,-999.0,40,-99.99,,,0.00,ADS-WS1 bash script,2013-03-04 21:10:00,
2013-03-04 16:15:00,39.9,19.0,30.08,ENE,63,1.0,-999.0,40,-99.99,,,0.00,ADS-WS1 bash script,2013-03-04 21:15:00,
2013-03-04 16:20:00,39.7,19.0,30.08,WNW,293,1.0,-999.0,41,-99.99,,,1.00,ADS-WS1 bash script,2013-03-04 21:20:00,
2013-03-04 16:30:00,39.0,19.0,30.08,NNW,333,1.0,-999.0,43,-99.99,,,1.00,ADS-WS1 bash script,2013-03-04 21:30:00,
2013-03-04 16:35:00,38.4,18.0,30.07,NNE,21,0.0,-999.0,43,-99.99,,,1.00,ADS-WS1 bash script,2013-03-04 21:35:00,
2013-03-04 16:40:00,37.9,18.0,30.08,WSW,254,2.0,-999.0,44,-99.99,,,1.00,ADS-WS1 bash script,2013-03-04 21:40:00,
2013-03-04 16:45:00,37.7,19.0,30.07,West,268,2.0,-999.0,45,-99.99,,,1.00,ADS-WS1 bash script,2013-03-04 21:45:00,
2013-03-04 16:50:00,37.3,18.0,30.07,SW,230,3.0,-999.0,45,-99.99,,,1.00,ADS-WS1 bash script,2013-03-04 21:50:00,
2013-03-04 16:55:00,37.2,18.0,30.07,SW,227,1.0,-999.0,46,-99.99,,,1.00,ADS-WS1 bash script,2013-03-04 21:55:00,
2013-03-04 17:00:00,37.2,17.0,30.08,NNW,335,0.0,-999.0,44,-99.99,,,1.00,ADS-WS1 bash script,2013-03-04 22:00:00,
2013-03-04 17:05:00,37.0,17.0,30.07,NW,313,2.0,-999.0,44,-99.99,,,1.00,ADS-WS1 bash script,2013-03-04 22:05:00,
2013-03-04 17:10:00,37.0,17.0,30.07,NE,35,1.0,-999.0,44,-99.99,,,1.00,ADS-WS1 bash script,2013-03-04 22:10:00,
2013-03-04 17:15:00,36.6,17.0,30.07,NE,43,0.0,-999.0,42,-99.99,,,1.00,ADS-WS1 bash script,2013-03-04 22:15:00,
2013-03-04 17:20:00,36.4,17.0,30.07,West,268,0.0,-999.0,45,-99.99,,,1.00,ADS-WS1 bash script,2013-03-04 22:20:00,
2013-03-04 17:25:00,35.9,18.0,30.07,West,268,0.0,-999.0,48,-99.99,,,1.00,ADS-WS1 bash script,2013-03-04 22:25:00,
2013-03-04 17:30:00,35.5,18.0,30.07,West,275,0.0,-999.0,49,-99.99,,,1.00,ADS-WS1 bash script,2013-03-04 22:30:00,
2013-03-04 17:40:00,34.6,17.0,30.07,South,179,1.0,-999.0,50,-99.99,,,1.00,ADS-WS1 bash script,2013-03-04 22:40:00,
2013-03-04 17:45:00,34.1,18.0,30.07,SSW,193,1.0,-999.0,53,-99.99,,,1.00,ADS-WS1 bash script,2013-03-04 22:45:00,
2013-03-04 17:50:00,33.7,18.0,30.07,SW,227,3.0,-999.0,54,-99.99,,,1.00,ADS-WS1 bash script,2013-03-04 22:50:00,
2013-03-04 17:55:00,33.4,17.0,30.07,SW,224,2.0,-999.0,54,-99.99,,,1.00,ADS-WS1 bash script,2013-03-04 22:55:00,
2013-03-04 18:05:00,32.8,18.0,30.07,South,179,4.0,-999.0,56,-99.99,,,1.00,ADS-WS1 bash script,2013-03-04 23:05:00,
2013-03-04 18:10:00,32.7,18.0,30.07,South,179,2.0,-999.0,56,-99.99,,,1.00,ADS-WS1 bash script,2013-03-04 23:10:00,
2013-03-04 18:15:00,32.3,16.0,30.07,South,179,1.0,-999.0,55,-99.99,,,1.00,ADS-WS1 bash script,2013-03-04 23:15:00,
2013-03-04 18:20:00,31.8,17.0,30.07,WSW,245,0.0,-999.0,56,-99.99,,,1.00,ADS-WS1 bash script,2013-03-04 23:20:00,
2013-03-04 18:25:00,31.4,16.0,30.08,SW,224,1.0,-999.0,57,-99.99,,,1.00,ADS-WS1 bash script,2013-03-04 23:25:00,
2013-03-04 18:30:00,31.1,17.0,30.07,South,179,0.0,-999.0,59,-99.99,,,1.00,ADS-WS1 bash script,2013-03-04 23:30:00,
2013-03-04 18:40:00,30.3,16.0,30.07,SW,235,0.0,-999.0,61,-99.99,,,1.00,ADS-WS1 bash script,2013-03-04 23:40:00,
2013-03-04 18:50:00,30.0,17.0,30.07,SW,230,1.0,-999.0,62,-99.99,,,1.00,ADS-WS1 bash script,2013-03-04 23:50:00,
2013-03-04 18:55:00,30.0,16.0,30.08,SW,228,1.0,-999.0,61,-99.99,,,1.00,ADS-WS1 bash script,2013-03-04 23:55:00,
2013-03-04 19:00:00,29.6,17.0,30.08,SW,224,0.0,-999.0,62,-99.99,,,1.00,ADS-WS1 bash script,2013-03-05 00:00:00,
2013-03-04 19:10:00,29.4,17.0,30.08,WSW,248,0.0,-999.0,64,-99.99,,,1.00,ADS-WS1 bash script,2013-03-05 00:10:00,
2013-03-04 19:15:00,29.4,17.0,30.08,West,268,1.0,-999.0,65,-99.99,,,1.00,ADS-WS1 bash script,2013-03-05 00:15:00,
2013-03-04 19:25:00,28.9,17.0,30.07,West,268,1.0,-999.0,64,-99.99,,,1.00,ADS-WS1 bash script,2013-03-05 00:25:00,
2013-03-04 19:30:00,28.9,17.0,30.08,West,268,0.0,-999.0,64,-99.99,,,1.00,ADS-WS1 bash script,2013-03-05 00:30:00,
2013-03-04 19:35:00,28.7,17.0,30.08,West,268,0.0,-999.0,65,-99.99,,,1.00,ADS-WS1 bash script,2013-03-05 00:35:00,
2013-03-04 19:40:00,28.5,16.0,30.07,West,268,0.0,-999.0,66,-99.99,,,1.00,ADS-WS1 bash script,2013-03-05 00:40:00,
2013-03-04 19:50:00,28.4,16.0,30.08,West,268,1.0,-999.0,65,-99.99,,,1.00,ADS-WS1 bash script,2013-03-05 00:50:00,
2013-03-04 20:00:00,28.2,16.0,30.08,West,268,0.0,-999.0,66,-99.99,,,1.00,ADS-WS1 bash script,2013-03-05 01:00:00,
2013-03-04 20:05:00,27.8,17.0,30.08,West,268,0.0,-999.0,68,-99.99,,,1.00,ADS-WS1 bash script,2013-03-05 01:05:00,
2013-03-04 20:10:00,27.6,17.0,30.08,West,268,0.0,-999.0,69,-99.99,,,1.00,ADS-WS1 bash script,2013-03-05 01:10:00,
2013-03-04 20:15:00,27.6,18.0,30.08,NW,313,1.0,-999.0,70,-99.99,,,1.00,ADS-WS1 bash script,2013-03-05 01:15:00,
2013-03-04 20:20:00,27.5,17.0,30.08,NW,313,0.0,-999.0,69,-99.99,,,1.00,ADS-WS1 bash script,2013-03-05 01:20:00,
2013-03-04 20:30:00,27.3,17.0,30.09,NW,313,0.0,-999.0,71,-99.99,,,1.00,ADS-WS1 bash script,2013-03-05 01:30:00,
2013-03-04 20:35:00,26.9,18.0,30.08,NW,313,0.0,-999.0,73,-99.99,,,1.00,ADS-WS1 bash script,2013-03-05 01:35:00,
2013-03-04 20:40:00,26.9,17.0,30.08,NW,313,0.0,-999.0,72,-99.99,,,1.00,ADS-WS1 bash script,2013-03-05 01:40:00,
2013-03-04 20:45:00,26.7,18.0,30.08,NW,313,0.0,-999.0,73,-99.99,,,1.00,ADS-WS1 bash script,2013-03-05 01:45:00,
2013-03-04 20:50:00,26.7,18.0,30.08,NW,313,0.0,-999.0,74,-99.99,,,1.00,ADS-WS1 bash script,2013-03-05 01:50:00,
2013-03-04 21:00:00,26.4,17.0,30.09,North,0,0.0,-999.0,74,-99.99,,,1.00,ADS-WS1 bash script,2013-03-05 02:00:00,
2013-03-04 21:05:00,26.4,18.0,30.09,NNW,335,0.0,-999.0,76,-99.99,,,1.00,ADS-WS1 bash script,2013-03-05 02:05:00,
2013-03-04 21:10:00,26.4,17.0,30.09,West,268,0.0,-999.0,74,-99.99,,,1.00,ADS-WS1 bash script,2013-03-05 02:10:00,
2013-03-04 21:15:00,26.4,17.0,30.09,WNW,283,0.0,-999.0,75,-99.99,,,1.00,ADS-WS1 bash script,2013-03-05 02:15:00,
2013-03-04 21:20:00,26.2,18.0,30.09,NW,313,0.0,-999.0,76,-99.99,,,1.00,ADS-WS1 bash script,2013-03-05 02:20:00,
2013-03-04 21:30:00,26.2,17.0,30.09,North,0,0.0,-999.0,75,-99.99,,,1.00,ADS-WS1 bash script,2013-03-05 02:30:00,
2013-03-04 21:35:00,26.2,18.0,30.09,NW,313,0.0,-999.0,76,-99.99,,,1.00,ADS-WS1 bash script,2013-03-05 02:35:00,
2013-03-04 21:40:00,26.0,18.0,30.09,North,0,0.0,-999.0,76,-99.99,,,1.00,ADS-WS1 bash script,2013-03-05 02:40:00,
2013-03-04 21:45:00,25.8,18.0,30.09,WNW,299,0.0,-999.0,76,-99.99,,,1.00,ADS-WS1 bash script,2013-03-05 02:45:00,
2013-03-04 21:50:00,25.7,18.0,30.09,NNW,331,1.0,-999.0,77,-99.99,,,1.00,ADS-WS1 bash script,2013-03-05 02:50:00,
2013-03-04 21:55:00,25.7,18.0,30.09,NNW,331,0.0,-999.0,77,-99.99,,,1.00,ADS-WS1 bash script,2013-03-05 02:55:00,
2013-03-04 22:00:00,25.5,18.0,30.09,North,0,0.0,-999.0,77,-99.99,,,1.00,ADS-WS1 bash script,2013-03-05 03:00:00,
2013-03-04 22:05:00,25.5,18.0,30.09,NW,313,0.0,-999.0,77,-99.99,,,1.00,ADS-WS1 bash script,2013-03-05 03:05:00,
2013-03-04 22:10:00,25.5,18.0,30.09,NNE,26,1.0,-999.0,76,-99.99,,,1.00,ADS-WS1 bash script,2013-03-05 03:10:00,
2013-03-04 22:15:00,25.7,18.0,30.09,NE,43,1.0,-999.0,77,-99.99,,,1.00,ADS-WS1 bash script,2013-03-05 03:15:00,
2013-03-04 22:20:00,25.8,18.0,30.09,NE,43,2.0,-999.0,77,-99.99,,,1.00,ADS-WS1 bash script,2013-03-05 03:20:00,
2013-03-04 22:25:00,26.0,17.0,30.09,East,84,2.0,-999.0,75,-99.99,,,1.00,ADS-WS1 bash script,2013-03-05 03:25:00,
2013-03-04 22:30:00,26.2,17.0,30.09,NE,43,1.0,-999.0,74,-99.99,,,1.00,ADS-WS1 bash script,2013-03-05 03:30:00,
2013-03-04 22:35:00,26.2,17.0,30.10,East,84,2.0,-999.0,73,-99.99,,,1.00,ADS-WS1 bash script,2013-03-05 03:35:00,
2013-03-04 22:40:00,26.2,17.0,30.10,NNW,335,1.0,-999.0,73,-99.99,,,1.00,ADS-WS1 bash script,2013-03-05 03:40:00,
2013-03-04 22:45:00,26.2,17.0,30.10,ENE,66,2.0,-999.0,74,-99.99,,,1.00,ADS-WS1 bash script,2013-03-05 03:45:00,
2013-03-04 22:50:00,26.2,17.0,30.10,ENE,69,0.0,-999.0,75,-99.99,,,1.00,ADS-WS1 bash script,2013-03-05 03:50:00,
2013-03-04 22:55:00,26.2,17.0,30.10,North,2,2.0,-999.0,75,-99.99,,,1.00,ADS-WS1 bash script,2013-03-05 03:55:00,
2013-03-04 23:00:00,26.4,17.0,30.10,NE,43,0.0,-999.0,75,-99.99,,,1.00,ADS-WS1 bash script,2013-03-05 04:00:00,
2013-03-04 23:05:00,26.4,17.0,30.10,NE,39,1.0,-999.0,75,-99.99,,,1.00,ADS-WS1 bash script,2013-03-05 04:05:00,
2013-03-04 23:10:00,26.6,18.0,30.10,ESE,108,2.0,-999.0,75,-99.99,,,1.00,ADS-WS1 bash script,2013-03-05 04:10:00,
2013-03-04 23:15:00,26.7,18.0,30.11,East,91,1.0,-999.0,74,-99.99,,,1.00,ADS-WS1 bash script,2013-03-05 04:15:00,
2013-03-04 23:20:00,26.7,18.0,30.11,NE,43,2.0,-999.0,74,-99.99,,,1.00,ADS-WS1 bash script,2013-03-05 04:20:00,
2013-03-04 23:30:00,26.9,18.0,30.11,East,83,0.0,-999.0,73,-99.99,,,1.00,ADS-WS1 bash script,2013-03-05 04:30:00,
2013-03-04 23:35:00,26.9,18.0,30.11,East,79,0.0,-999.0,73,-99.99,,,1.00,ADS-WS1 bash script,2013-03-05 04:35:00,
2013-03-04 23:40:00,26.9,18.0,30.11,ENE,57,5.0,-999.0,74,-99.99,,,1.00,ADS-WS1 bash script,2013-03-05 04:40:00,
2013-03-04 23:45:00,26.9,18.0,30.11,NE,56,2.0,-999.0,73,-99.99,,,1.00,ADS-WS1 bash script,2013-03-05 04:45:00,
2013-03-04 23:50:00,26.9,18.0,30.11,ENE,70,1.0,-999.0,74,-99.99,,,1.00,ADS-WS1 bash script,2013-03-05 04:50:00,